Regional Weather Roundup
Issued by NWS

Home | Current Version | Previous Version | Graphics & Text | Print | Product List | Glossary On
Versions: 1 2 3 4 5 6 7 8 9 10 11 12 13 14 15 16 17 18 19 20 21 22 23 24 25 26 27 28 29 30 31 32 33 34 35 36 37 38 39 40 41 42 43 44 45 46 47 48 49 50
648
ASUS45 KPSR 241010
RWRAZ

ARIZONA HOURLY REGIONAL WEATHER ROUNDUP
NATIONAL WEATHER SERVICE PHOENIX AZ
300 AM MST WED MAY 24 2017

NOTE: FAIR INDICATES FEW OR NO CLOUDS BELOW 12,000 FEET WITH NO
SIGNIFICANT WEATHER AND/OR OBSTRUCTIONS TO VISIBILITY.

AZZ001>003-036-241100-
NORTHWEST ARIZONA

CITY           SKY/WX    TMP DP  RH WIND       PRES   REMARKS
BULLHEAD CITY  CLEAR     84  27  12 SE7       29.71S
KINGMAN        CLEAR     58  23  26 MISG      29.92S
$$

AZZ004>008-015-016-018-241100-
NORTH CENTRAL ARIZONA

CITY           SKY/WX    TMP DP  RH WIND       PRES   REMARKS
GRAND CANYON   PTCLDY    36  27  69 CALM      30.15F
WILLIAMS       CLEAR     43  27  52 S12       30.15F
PRESCOTT       CLEAR     55  30  38 CALM      30.04F
FLAGSTAFF      CLEAR     39  26  59 CALM      30.17F
PAYSON         CLEAR     59  23  25 CALM      30.08S
PAGE           CLEAR     64  36  35 W5        29.97F
$$

AZZ009>014-017-241100-
NORTHEAST ARIZONA

CITY           SKY/WX    TMP DP  RH WIND       PRES   REMARKS
WINSLOW        CLEAR     49  24  37 E5        30.05S
SAINT JOHNS    CLEAR     53  26  35 S8        30.08F
WINDOW ROCK    CLEAR     39  26  59 CALM      30.14F
SHOW LOW       CLEAR     46  23  39 S5        30.14F
$$

AZZ540-542>544-546-548-241100-
GREATER PHOENIX AREA

CITY           SKY/WX    TMP DP  RH WIND       PRES   REMARKS
PHOENIX        CLEAR     81  32  17 E3        29.74S
BUCKEYE        CLEAR     73  19  13 NE6       29.75S
LUKE AFB       CLEAR     83  29  14 S8        29.74S
DEER VALLEY    CLEAR     76  22  13 CALM      29.77R
SCOTTSDALE     CLEAR     77  36  22 CALM      29.79R
MESA-GATEWAY   CLEAR     72  32  23 SE7       29.77S
$$

AZZ539-553-241100-
SOUTHWEST MARICOPA COUNTY AND PINAL COUNTY

CITY           SKY/WX    TMP DP  RH WIND       PRES   REMARKS
CASA GRANDE    CLEAR     69  27  20 NE6       29.80S
GILA BEND      FAIR      80  24  13 SE6       29.74S
$$

AZZ503-504-507>509-241100-
SOUTHEAST ARIZONA

CITY           SKY/WX    TMP DP  RH WIND       PRES   REMARKS
TUCSON         CLEAR     72  24  16 SE9       29.91F
DAVIS-MONTHAN  CLEAR     68  22  17 E7        29.90F
NOGALES        CLEAR     64  23  21 NE5       29.99F
SIERRA VISTA   CLEAR     65  16  15 W8        30.04S
DOUGLAS        CLEAR     58  16  19 CALM      30.00S
SAFFORD        CLEAR     70  21  15 SE5       29.89F
$$

AZZ532-241100-
SOUTHWEST ARIZONA

CITY           SKY/WX    TMP DP  RH WIND       PRES   REMARKS
YUMA           CLEAR     80  42  25 CALM      29.70F
$$

CAZ041-043-047-048-061-525>527-560>570-241100-
SOUTHERN CALIFORNIA

CITY           SKY/WX    TMP DP  RH WIND       PRES   REMARKS
DOWNTOWN L.A.  MOCLDY    59  56  89 CALM      29.88F FOG
L.A. AIRPORT   MOCLDY    59  57  93 SW7       29.88F
SAN DIEGO      CLOUDY    62  58  86 W7        29.91S
BURBANK        CLEAR     60  54  80 S5        29.87F
ONTARIO        CLEAR     62  54  74 CALM      29.88F
RIVERSIDE      CLEAR     61  54  77 SW3       29.88F
PALM SPRINGS   CLEAR     82  46  28 CALM      29.73F
EL CENTRO NAS  CLEAR     77  34  21 W7        29.70F
IMPERIAL       CLEAR     78  42  27 W7        29.68F
BLYTHE         CLEAR     80  38  22 CALM      29.70S
NEEDLES        CLEAR     81  24  12 CALM      29.73S
$$

NVZ020-UTZ003-241100-
SOUTHERN NEVADA-UTAH

CITY           SKY/WX    TMP DP  RH WIND       PRES   REMARKS
LAS VEGAS      CLEAR     84  20   9 S9        29.78F
SALT LAKE CITY CLEAR     61  38  42 SE9       29.91F
$$

NMZ009-TXZ055-241100-
NEW MEXICO-WEST TEXAS

CITY           SKY/WX    TMP DP  RH WIND       PRES   REMARKS
ALBUQUERQUE    CLEAR     54  33  45 NW8       30.07S
EL PASO        CLEAR     60  36  40 SE5       30.01F
$$


........................KEY........................
SKY/WX - SKY CONDITION/WEATHER
TMP    - TEMPERATURE IN FAHRENHEIT
DP     - DEW POINT IN FAHRENHEIT
RH     - RELATIVE HUMIDITY IN PERCENT
WIND   - DIRECTION AND SPEED IN MILES PER HOUR (MPH)
VRB    - VARIABLE WIND DIRECTION
PRES   - MEAN SEA LEVEL PRESSURE IN INCHES OF MERCURY
         F - FALLING PRESSURE   R - RISING PRESSURE
         S - STEADY PRESSURE
VSB    - VISIBILITY IN MILES
HX     - HEAT INDEX IN FAHRENHEIT
WCI    - WIND CHILL INDEX IN FAHRENHEIT
TC     - TEMPERATURE IN CELSIUS WHICH IS ALSO KNOWN AS
         TEMPERATURE IN CENTIGRADE
AFB    - AIR FORCE BASE
         LUKE AFB IS LUKE AIR FORCE BASE
         DAVIS-MONTHAN IS DAVIS-MONTHAN AIR FORCE BASE
NAS    - NAVAL AIR STATION
         EL CENTRO NAS IS EL CENTRO NAVAL AIR STATION
N/A    - NOT AVAILABLE





USA.gov is the U.S. government's official web portal to all federal, state and local government web resources and services.